{"data":{"norad_id":58437,"epoch":"2026-09-20T14:36:21.661056Z","epoch_age_seconds":137368,"freshness":"FRESH","line1":"1 58437U 23183A   26263.60858404  .00020466  00000+0  75043-3 0  9997","line2":"2 58437  43.0016  20.9058 0000773 228.0240 132.0546 15.27613220156543","mean_motion":15.2761322,"eccentricity":7.73e-5,"inclination_deg":43.0016,"raan_deg":20.9058,"arg_perigee_deg":228.024,"mean_anomaly_deg":132.0546,"bstar":0.00075043,"rev_number":15654,"period_min":94.264698756666,"perigee_km":482.41926321533,"apogee_km":483.47998720759,"semimajor_km":6861.0866252115,"source":"CELESTRAK","updated_at":"2026-09-21T09:00:33.875025Z"}}